Year,Month,Day,Hour,Minute,Value (Times are PST for temperature in C)
2018,06,20,00,00,16.90
2018,06,20,00,01,16.80
2018,06,20,00,02,16.80
2018,06,20,00,03,16.80
2018,06,20,00,04,16.80
2018,06,20,00,05,16.70
2018,06,20,00,06,16.70
2018,06,20,00,07,16.70
2018,06,20,00,08,16.70
2018,06,20,00,09,16.70
2018,06,20,00,10,16.70
2018,06,20,00,11,16.60
2018,06,20,00,12,16.60
2018,06,20,00,13,16.60
2018,06,20,00,14,16.50
2018,06,20,00,15,16.50
2018,06,20,00,16,16.50
2018,06,20,00,17,16.40
2018,06,20,00,18,16.40
2018,06,20,00,19,16.40
2018,06,20,00,20,16.30
2018,06,20,00,21,16.30
2018,06,20,00,22,16.30
2018,06,20,00,23,16.30
2018,06,20,00,24,16.20
2018,06,20,00,25,16.20
2018,06,20,00,26,16.20
2018,06,20,00,27,16.20
2018,06,20,00,28,16.20
2018,06,20,00,29,16.20
2018,06,20,00,30,16.20
2018,06,20,00,31,16.20
2018,06,20,00,32,16.20
2018,06,20,00,33,16.10
2018,06,20,00,34,16.10
2018,06,20,00,35,16.10
2018,06,20,00,36,16.10
2018,06,20,00,37,16.10
2018,06,20,00,38,16.10
2018,06,20,00,39,16.10
2018,06,20,00,40,16.10
2018,06,20,00,41,16.10
2018,06,20,00,42,16.10
2018,06,20,00,43,16.00
2018,06,20,00,44,16.00
2018,06,20,00,45,15.90
2018,06,20,00,46,15.90
2018,06,20,00,47,15.90
2018,06,20,00,48,15.90
2018,06,20,00,49,15.80
2018,06,20,00,50,15.80
2018,06,20,00,51,15.80
2018,06,20,00,52,15.80
2018,06,20,00,53,15.80
2018,06,20,00,54,15.80
2018,06,20,00,55,15.80
2018,06,20,00,56,15.80
2018,06,20,00,57,15.70
2018,06,20,00,58,15.70
2018,06,20,00,59,15.70
2018,06,20,01,00,15.70
2018,06,20,01,01,15.70
2018,06,20,01,02,15.70
2018,06,20,01,03,15.70
2018,06,20,01,04,15.70
2018,06,20,01,05,15.60
2018,06,20,01,06,15.60
2018,06,20,01,07,15.60
2018,06,20,01,08,15.60
2018,06,20,01,09,15.60
2018,06,20,01,10,15.60
2018,06,20,01,11,15.60
2018,06,20,01,12,15.60
2018,06,20,01,13,15.60
2018,06,20,01,14,15.60
2018,06,20,01,15,15.50
2018,06,20,01,16,15.50
2018,06,20,01,17,15.50
2018,06,20,01,18,15.50
2018,06,20,01,19,15.40
2018,06,20,01,20,15.40
2018,06,20,01,21,15.40
2018,06,20,01,22,15.40
2018,06,20,01,23,15.40
2018,06,20,01,24,15.30
2018,06,20,01,25,15.30
2018,06,20,01,26,15.30
2018,06,20,01,27,15.30
2018,06,20,01,28,15.30
2018,06,20,01,29,15.30
2018,06,20,01,30,15.30
2018,06,20,01,31,15.20
2018,06,20,01,32,15.20
2018,06,20,01,33,15.20
2018,06,20,01,34,15.20
2018,06,20,01,35,15.20
2018,06,20,01,36,15.20
2018,06,20,01,37,15.10
2018,06,20,01,38,15.10
2018,06,20,01,39,15.10
2018,06,20,01,40,15.10
2018,06,20,01,41,15.10
2018,06,20,01,42,15.10
2018,06,20,01,43,15.10
2018,06,20,01,44,15.00
2018,06,20,01,45,15.00
2018,06,20,01,46,15.00
2018,06,20,01,47,15.00
2018,06,20,01,48,14.90
2018,06,20,01,49,14.90
2018,06,20,01,50,14.90
2018,06,20,01,51,14.90
2018,06,20,01,52,14.90
2018,06,20,01,53,14.90
2018,06,20,01,54,14.90
2018,06,20,01,55,14.90
2018,06,20,01,56,14.90
2018,06,20,01,57,14.90
2018,06,20,01,58,14.90
2018,06,20,01,59,14.90
2018,06,20,02,00,14.90
2018,06,20,02,01,14.90
2018,06,20,02,02,14.90
2018,06,20,02,03,14.90
2018,06,20,02,04,14.90
2018,06,20,02,05,14.90
2018,06,20,02,06,14.90
2018,06,20,02,07,14.90
2018,06,20,02,08,14.90
2018,06,20,02,09,14.90
2018,06,20,02,10,14.90
2018,06,20,02,11,14.90
2018,06,20,02,12,14.80
2018,06,20,02,13,14.80
2018,06,20,02,14,14.80
2018,06,20,02,15,14.80
2018,06,20,02,16,14.80
2018,06,20,02,17,14.80
2018,06,20,02,18,14.70
2018,06,20,02,19,14.70
2018,06,20,02,20,14.70
2018,06,20,02,21,14.70
2018,06,20,02,22,14.70
2018,06,20,02,23,14.70
2018,06,20,02,24,14.60
2018,06,20,02,25,14.60
2018,06,20,02,26,14.60
2018,06,20,02,27,14.60
2018,06,20,02,28,14.60
2018,06,20,02,29,14.60
2018,06,20,02,30,14.60
2018,06,20,02,31,14.60
2018,06,20,02,32,14.60
2018,06,20,02,33,14.60
2018,06,20,02,34,14.60
2018,06,20,02,35,14.50
2018,06,20,02,36,14.50
2018,06,20,02,37,14.50
2018,06,20,02,38,14.50
2018,06,20,02,39,14.50
2018,06,20,02,40,14.50
2018,06,20,02,41,14.50
2018,06,20,02,42,14.50
2018,06,20,02,43,14.40
2018,06,20,02,44,14.40
2018,06,20,02,45,14.40
2018,06,20,02,46,14.40
2018,06,20,02,47,14.40
2018,06,20,02,48,14.40
2018,06,20,02,49,14.40
2018,06,20,02,50,14.30
2018,06,20,02,51,14.30
2018,06,20,02,52,14.30
2018,06,20,02,53,14.30
2018,06,20,02,54,14.30
2018,06,20,02,55,14.30
2018,06,20,02,56,14.30
2018,06,20,02,57,14.20
2018,06,20,02,58,14.20
2018,06,20,02,59,14.20
2018,06,20,03,00,14.20
2018,06,20,03,01,14.20
2018,06,20,03,02,14.20
2018,06,20,03,03,14.20
2018,06,20,03,04,14.20
2018,06,20,03,05,14.20
2018,06,20,03,06,14.20
2018,06,20,03,07,14.20
2018,06,20,03,08,14.10
2018,06,20,03,09,14.10
2018,06,20,03,10,14.10
2018,06,20,03,11,14.10
2018,06,20,03,12,14.10
2018,06,20,03,13,14.10
2018,06,20,03,14,14.10
2018,06,20,03,15,14.10
2018,06,20,03,16,14.10
2018,06,20,03,17,14.10
2018,06,20,03,18,14.10
2018,06,20,03,19,14.10
2018,06,20,03,20,14.00
2018,06,20,03,21,14.00
2018,06,20,03,22,14.00
2018,06,20,03,23,14.00
2018,06,20,03,24,14.00
2018,06,20,03,25,14.00
2018,06,20,03,26,14.00
2018,06,20,03,27,14.00
2018,06,20,03,28,14.00
2018,06,20,03,29,14.00
2018,06,20,03,30,14.00
2018,06,20,03,31,14.00
2018,06,20,03,32,14.00
2018,06,20,03,33,13.90
2018,06,20,03,34,13.90
2018,06,20,03,35,13.90
2018,06,20,03,36,13.90
2018,06,20,03,37,13.90
2018,06,20,03,38,13.90
2018,06,20,03,39,13.80
2018,06,20,03,40,13.80
2018,06,20,03,41,13.80
2018,06,20,03,42,13.80
2018,06,20,03,43,13.80
2018,06,20,03,44,13.80
2018,06,20,03,45,13.80
2018,06,20,03,46,13.80
2018,06,20,03,47,13.80
2018,06,20,03,48,13.80
2018,06,20,03,49,13.80
2018,06,20,03,50,13.80
2018,06,20,03,51,13.80
2018,06,20,03,52,13.80
2018,06,20,03,53,13.70
2018,06,20,03,54,13.70
2018,06,20,03,55,13.70
2018,06,20,03,56,13.70
2018,06,20,03,57,13.70
2018,06,20,03,58,13.70
2018,06,20,03,59,13.70
2018,06,20,04,00,13.70
2018,06,20,04,01,13.70
2018,06,20,04,02,13.70
2018,06,20,04,03,13.60
2018,06,20,04,04,13.60
2018,06,20,04,05,13.60
2018,06,20,04,06,13.60
2018,06,20,04,07,13.60
2018,06,20,04,08,13.60
2018,06,20,04,09,13.60
2018,06,20,04,10,13.60
2018,06,20,04,11,13.60
2018,06,20,04,12,13.60
2018,06,20,04,13,13.60
2018,06,20,04,14,13.60
2018,06,20,04,15,13.50
2018,06,20,04,16,13.50
2018,06,20,04,17,13.50
2018,06,20,04,18,13.50
2018,06,20,04,19,13.40
2018,06,20,04,20,13.40
2018,06,20,04,21,13.40
2018,06,20,04,22,13.40
2018,06,20,04,23,13.40
2018,06,20,04,24,13.40
2018,06,20,04,25,13.40
2018,06,20,04,26,13.40
2018,06,20,04,27,13.40
2018,06,20,04,28,13.30
2018,06,20,04,29,13.30
2018,06,20,04,30,13.30
2018,06,20,04,31,13.30
2018,06,20,04,32,13.30
2018,06,20,04,33,13.30
2018,06,20,04,34,13.30
2018,06,20,04,35,13.30
2018,06,20,04,36,13.30
2018,06,20,04,37,13.30
2018,06,20,04,38,13.30
2018,06,20,04,39,13.30
2018,06,20,04,40,13.30
2018,06,20,04,41,13.30
2018,06,20,04,42,13.30
2018,06,20,04,43,13.30
2018,06,20,04,44,13.30
2018,06,20,04,45,13.30
2018,06,20,04,46,13.30
2018,06,20,04,47,13.30
2018,06,20,04,48,13.30
2018,06,20,04,49,13.30
2018,06,20,04,50,13.30
2018,06,20,04,51,13.30
2018,06,20,04,52,13.30
2018,06,20,04,53,13.30
2018,06,20,04,54,13.20
2018,06,20,04,55,13.20
2018,06,20,04,56,13.20
2018,06,20,04,57,13.20
2018,06,20,04,58,13.20
2018,06,20,04,59,13.20
2018,06,20,05,00,13.20
2018,06,20,05,01,13.20
2018,06,20,05,02,13.20
2018,06,20,05,03,13.20
2018,06,20,05,04,13.20
2018,06,20,05,05,13.20
2018,06,20,05,06,13.20
2018,06,20,05,07,13.10
2018,06,20,05,08,13.10
2018,06,20,05,09,13.10
2018,06,20,05,10,13.10
2018,06,20,05,11,13.10
2018,06,20,05,12,13.10
2018,06,20,05,13,13.10
2018,06,20,05,14,13.10
2018,06,20,05,15,13.10
2018,06,20,05,16,13.10
2018,06,20,05,17,13.10
2018,06,20,05,18,13.10
2018,06,20,05,19,13.10
2018,06,20,05,20,13.20
2018,06,20,05,21,13.20
2018,06,20,05,22,13.20
2018,06,20,05,23,13.20
2018,06,20,05,24,13.20
2018,06,20,05,25,13.30
2018,06,20,05,26,13.30
2018,06,20,05,27,13.30
2018,06,20,05,28,13.30
2018,06,20,05,29,13.30
2018,06,20,05,30,13.30
2018,06,20,05,31,13.40
2018,06,20,05,32,13.40
2018,06,20,05,33,13.40
2018,06,20,05,34,13.40
2018,06,20,05,35,13.50
2018,06,20,05,36,13.50
2018,06,20,05,37,13.50
2018,06,20,05,38,13.50
2018,06,20,05,39,13.50
2018,06,20,05,40,13.50
2018,06,20,05,41,13.60
2018,06,20,05,42,13.60
2018,06,20,05,43,13.50
2018,06,20,05,44,13.50
2018,06,20,05,45,13.50
2018,06,20,05,46,13.50
2018,06,20,05,47,13.60
2018,06,20,05,48,13.60
2018,06,20,05,49,13.60
2018,06,20,05,50,13.60
2018,06,20,05,51,13.60
2018,06,20,05,52,13.60
2018,06,20,05,53,13.60
2018,06,20,05,54,13.60
2018,06,20,05,55,13.70
2018,06,20,05,56,13.70
2018,06,20,05,57,13.70
2018,06,20,05,58,13.70
2018,06,20,05,59,13.70
2018,06,20,06,00,13.70
2018,06,20,06,01,13.70
2018,06,20,06,02,13.70
2018,06,20,06,03,13.70
2018,06,20,06,04,13.70
2018,06,20,06,05,13.70
2018,06,20,06,06,13.70
2018,06,20,06,07,13.70
2018,06,20,06,08,13.70
2018,06,20,06,09,13.70
2018,06,20,06,10,13.70
2018,06,20,06,11,13.70
2018,06,20,06,12,13.80
2018,06,20,06,13,13.80
2018,06,20,06,14,13.80
2018,06,20,06,15,13.80
2018,06,20,06,16,13.80
2018,06,20,06,17,13.80
2018,06,20,06,18,13.80
2018,06,20,06,19,13.80
2018,06,20,06,20,13.90
2018,06,20,06,21,13.90
2018,06,20,06,22,13.90
2018,06,20,06,23,13.90
2018,06,20,06,24,13.90
2018,06,20,06,25,13.90
2018,06,20,06,26,13.90
2018,06,20,06,27,13.90
2018,06,20,06,28,14.00
2018,06,20,06,29,14.00
2018,06,20,06,30,14.00
2018,06,20,06,31,14.10
2018,06,20,06,32,14.10
2018,06,20,06,33,14.10
2018,06,20,06,34,14.10
2018,06,20,06,35,14.20
2018,06,20,06,36,14.20
2018,06,20,06,37,14.20
2018,06,20,06,38,14.20
2018,06,20,06,39,14.20
2018,06,20,06,40,14.30
2018,06,20,06,41,14.30
2018,06,20,06,42,14.30
2018,06,20,06,43,14.30
2018,06,20,06,44,14.30
2018,06,20,06,45,14.30
2018,06,20,06,46,14.30
2018,06,20,06,47,14.30
2018,06,20,06,48,14.30
2018,06,20,06,49,14.30
2018,06,20,06,50,14.30
2018,06,20,06,51,14.30
2018,06,20,06,52,14.30
2018,06,20,06,53,14.40
2018,06,20,06,54,14.40
2018,06,20,06,55,14.40
2018,06,20,06,56,14.40
2018,06,20,06,57,14.40
2018,06,20,06,58,14.40
2018,06,20,06,59,14.50
2018,06,20,07,00,14.50
2018,06,20,07,01,14.50
2018,06,20,07,02,14.50
2018,06,20,07,03,14.50
2018,06,20,07,04,14.50
2018,06,20,07,05,14.50
2018,06,20,07,06,14.50
2018,06,20,07,07,14.50
2018,06,20,07,08,14.60
2018,06,20,07,09,14.60
2018,06,20,07,10,14.60
2018,06,20,07,11,14.60
2018,06,20,07,12,14.60
2018,06,20,07,13,14.60
2018,06,20,07,14,14.60
2018,06,20,07,15,14.60
2018,06,20,07,16,14.60
2018,06,20,07,17,14.60
2018,06,20,07,18,14.70
2018,06,20,07,19,14.70
2018,06,20,07,20,14.70
2018,06,20,07,21,14.70
2018,06,20,07,22,14.70
2018,06,20,07,23,14.80
2018,06,20,07,24,14.80
2018,06,20,07,25,14.80
2018,06,20,07,26,14.80
2018,06,20,07,27,14.90
2018,06,20,07,28,14.90
2018,06,20,07,29,14.80
2018,06,20,07,30,14.80
2018,06,20,07,31,14.80
2018,06,20,07,32,14.80
2018,06,20,07,33,14.70
2018,06,20,07,34,14.70
2018,06,20,07,35,14.70
2018,06,20,07,36,14.70
2018,06,20,07,37,14.70
2018,06,20,07,38,14.70
2018,06,20,07,39,14.70
2018,06,20,07,40,14.70
2018,06,20,07,41,14.70
2018,06,20,07,42,14.80
2018,06,20,07,43,14.80
2018,06,20,07,44,14.80
2018,06,20,07,45,14.90
2018,06,20,07,46,14.90
2018,06,20,07,47,15.00
2018,06,20,07,48,15.00
2018,06,20,07,49,15.10
2018,06,20,07,50,15.10
2018,06,20,07,51,15.10
2018,06,20,07,52,15.20
2018,06,20,07,53,15.20
2018,06,20,07,54,15.20
2018,06,20,07,55,15.20
2018,06,20,07,56,15.30
2018,06,20,07,57,15.30
2018,06,20,07,58,15.40
2018,06,20,07,59,15.40
2018,06,20,08,00,15.50
2018,06,20,08,01,15.60
2018,06,20,08,02,15.70
2018,06,20,08,03,15.70
2018,06,20,08,04,15.80
2018,06,20,08,05,15.90
2018,06,20,08,06,16.10
2018,06,20,08,07,16.20
2018,06,20,08,08,16.30
2018,06,20,08,09,16.50
2018,06,20,08,10,16.60
2018,06,20,08,11,16.80
2018,06,20,08,12,16.90
2018,06,20,08,13,17.00
2018,06,20,08,14,17.20
2018,06,20,08,15,17.30
2018,06,20,08,16,17.40
2018,06,20,08,17,17.60
2018,06,20,08,18,17.70
2018,06,20,08,19,17.90
2018,06,20,08,20,18.00
2018,06,20,08,21,18.10
2018,06,20,08,22,18.20
2018,06,20,08,23,18.30
2018,06,20,08,24,18.30
2018,06,20,08,25,18.40
2018,06,20,08,26,18.50
2018,06,20,08,27,18.50
2018,06,20,08,28,18.60
2018,06,20,08,29,18.70
2018,06,20,08,30,18.70
2018,06,20,08,31,18.70
2018,06,20,08,32,18.70
2018,06,20,08,33,18.80
2018,06,20,08,34,18.80
2018,06,20,08,35,18.80
2018,06,20,08,36,18.90
2018,06,20,08,37,18.90
2018,06,20,08,38,18.90
2018,06,20,08,39,19.00
2018,06,20,08,40,19.00
2018,06,20,08,41,19.00
2018,06,20,08,42,19.10
2018,06,20,08,43,19.10
2018,06,20,08,44,19.20
2018,06,20,08,45,19.20
2018,06,20,08,46,19.20
2018,06,20,08,47,19.20
2018,06,20,08,48,19.20
2018,06,20,08,49,19.20
2018,06,20,08,50,19.20
2018,06,20,08,51,19.20
2018,06,20,08,52,19.20
2018,06,20,08,53,19.20
2018,06,20,08,54,19.20
2018,06,20,08,55,19.20
2018,06,20,08,56,19.10
2018,06,20,08,57,19.10
2018,06,20,08,58,19.10
2018,06,20,08,59,19.00
2018,06,20,09,00,18.90
2018,06,20,09,01,18.80
2018,06,20,09,02,18.80
2018,06,20,09,03,18.70
2018,06,20,09,04,18.70
2018,06,20,09,05,18.60
2018,06,20,09,06,18.50
2018,06,20,09,07,18.40
2018,06,20,09,08,18.30
2018,06,20,09,09,18.30
2018,06,20,09,10,18.30
2018,06,20,09,11,18.30
2018,06,20,09,12,18.30
2018,06,20,09,13,18.30
2018,06,20,09,14,18.30
2018,06,20,09,15,18.30
2018,06,20,09,16,18.30
2018,06,20,09,17,18.40
2018,06,20,09,18,18.40
2018,06,20,09,19,18.50
2018,06,20,09,20,18.50
2018,06,20,09,21,18.60
2018,06,20,09,22,18.60
2018,06,20,09,23,18.70
2018,06,20,09,24,18.70
2018,06,20,09,25,18.80
2018,06,20,09,26,18.90
2018,06,20,09,27,18.90
2018,06,20,09,28,19.00
2018,06,20,09,29,19.00
2018,06,20,09,30,19.10
2018,06,20,09,31,19.10
2018,06,20,09,32,19.10
2018,06,20,09,33,19.20
2018,06,20,09,34,19.20
2018,06,20,09,35,19.30
2018,06,20,09,36,19.40
2018,06,20,09,37,19.40
2018,06,20,09,38,19.50
2018,06,20,09,39,19.60
2018,06,20,09,40,19.70
2018,06,20,09,41,19.80
2018,06,20,09,42,19.90
2018,06,20,09,43,20.00
2018,06,20,09,44,20.10
2018,06,20,09,45,20.20
2018,06,20,09,46,20.30
2018,06,20,09,47,20.40
2018,06,20,09,48,20.40
2018,06,20,09,49,20.50
2018,06,20,09,50,20.60
2018,06,20,09,51,20.70
2018,06,20,09,52,20.80
2018,06,20,09,53,20.90
2018,06,20,09,54,20.90
2018,06,20,09,55,21.00
2018,06,20,09,56,21.10
2018,06,20,09,57,21.20
2018,06,20,09,58,21.30
2018,06,20,09,59,21.40
2018,06,20,10,00,21.50
2018,06,20,10,01,21.50
2018,06,20,10,02,21.60
2018,06,20,10,03,21.60
2018,06,20,10,04,21.60
2018,06,20,10,05,21.70
2018,06,20,10,06,21.70
2018,06,20,10,07,21.70
2018,06,20,10,08,21.70
2018,06,20,10,09,21.70
2018,06,20,10,10,21.70
2018,06,20,10,11,21.80
2018,06,20,10,12,21.90
2018,06,20,10,13,21.90
2018,06,20,10,14,21.90
2018,06,20,10,15,22.00
2018,06,20,10,16,22.10
2018,06,20,10,17,22.10
2018,06,20,10,18,22.20
2018,06,20,10,19,22.20
2018,06,20,10,20,22.20
2018,06,20,10,21,22.30
2018,06,20,10,22,22.20
2018,06,20,10,23,22.20
2018,06,20,10,24,22.20
2018,06,20,10,25,22.20
2018,06,20,10,26,22.20
2018,06,20,10,27,22.30
2018,06,20,10,28,22.30
2018,06,20,10,29,22.30
2018,06,20,10,30,22.30
2018,06,20,10,31,22.30
2018,06,20,10,32,22.40
2018,06,20,10,33,22.40
2018,06,20,10,34,22.50
2018,06,20,10,35,22.60
2018,06,20,10,36,22.60
2018,06,20,10,37,22.60
2018,06,20,10,38,22.70
2018,06,20,10,39,22.70
2018,06,20,10,40,22.70
2018,06,20,10,41,22.80
2018,06,20,10,42,22.90
2018,06,20,10,43,22.90
2018,06,20,10,44,23.00
2018,06,20,10,45,23.10
2018,06,20,10,46,23.10
2018,06,20,10,47,23.10
2018,06,20,10,48,23.20
2018,06,20,10,49,23.20
2018,06,20,10,50,23.30
2018,06,20,10,51,23.30
2018,06,20,10,52,23.50
2018,06,20,10,53,23.50
2018,06,20,10,54,23.60
2018,06,20,10,55,23.70
2018,06,20,10,56,23.80
2018,06,20,10,57,23.90
2018,06,20,10,58,23.90
2018,06,20,10,59,23.90
2018,06,20,11,00,23.90
2018,06,20,11,01,23.90
2018,06,20,11,02,24.00
2018,06,20,11,03,24.10
2018,06,20,11,04,24.10
2018,06,20,11,05,24.20
2018,06,20,11,06,24.20
2018,06,20,11,07,24.30
2018,06,20,11,08,24.30
2018,06,20,11,09,24.40
2018,06,20,11,10,24.40
2018,06,20,11,11,24.50
2018,06,20,11,12,24.60
2018,06,20,11,13,24.60
2018,06,20,11,14,24.60
2018,06,20,11,15,24.50
2018,06,20,11,16,24.50
2018,06,20,11,17,24.40
2018,06,20,11,18,24.30
2018,06,20,11,19,24.20
2018,06,20,11,20,24.20
2018,06,20,11,21,24.10
2018,06,20,11,22,24.10
2018,06,20,11,23,24.00
2018,06,20,11,24,23.90
2018,06,20,11,25,23.80
2018,06,20,11,26,23.80
2018,06,20,11,27,23.80
2018,06,20,11,28,23.90
2018,06,20,11,29,24.00
2018,06,20,11,30,24.00
2018,06,20,11,31,24.10
2018,06,20,11,32,24.10
2018,06,20,11,33,24.10
2018,06,20,11,34,24.10
2018,06,20,11,35,24.10
2018,06,20,11,36,24.10
2018,06,20,11,37,24.10
2018,06,20,11,38,24.10
2018,06,20,11,39,24.10
2018,06,20,11,40,24.10
2018,06,20,11,41,24.10
2018,06,20,11,42,24.10
2018,06,20,11,43,24.20
2018,06,20,11,44,24.30
2018,06,20,11,45,24.40
2018,06,20,11,46,24.50
2018,06,20,11,47,24.60
2018,06,20,11,48,24.60
2018,06,20,11,49,24.60
2018,06,20,11,50,24.70
2018,06,20,11,51,24.80
2018,06,20,11,52,24.80
2018,06,20,11,53,24.90
2018,06,20,11,54,25.00
2018,06,20,11,55,25.10
2018,06,20,11,56,25.20
2018,06,20,11,57,25.20
2018,06,20,11,58,25.30
2018,06,20,11,59,25.30
2018,06,20,12,00,25.30
2018,06,20,12,01,25.40
2018,06,20,12,02,25.40
2018,06,20,12,03,25.40
2018,06,20,12,04,25.40
2018,06,20,12,05,25.30
2018,06,20,12,06,25.20
2018,06,20,12,07,25.10
2018,06,20,12,08,25.00
2018,06,20,12,09,24.90
2018,06,20,12,10,24.80
2018,06,20,12,11,24.60
2018,06,20,12,12,24.50
2018,06,20,12,13,24.40
2018,06,20,12,14,24.30
2018,06,20,12,15,24.30
2018,06,20,12,16,24.30
2018,06,20,12,17,24.20
2018,06,20,12,18,24.20
2018,06,20,12,19,24.20
2018,06,20,12,20,24.10
2018,06,20,12,21,24.10
2018,06,20,12,22,24.10
2018,06,20,12,23,24.10
2018,06,20,12,24,24.10
2018,06,20,12,25,24.20
2018,06,20,12,26,24.30
2018,06,20,12,27,24.40
2018,06,20,12,28,24.50
2018,06,20,12,29,24.50
2018,06,20,12,30,24.60
2018,06,20,12,31,24.60
2018,06,20,12,32,24.60
2018,06,20,12,33,24.70
2018,06,20,12,34,24.70
2018,06,20,12,35,24.80
2018,06,20,12,36,24.80
2018,06,20,12,37,24.90
2018,06,20,12,38,25.00
2018,06,20,12,39,25.00
2018,06,20,12,40,25.10
2018,06,20,12,41,25.20
2018,06,20,12,42,25.30
2018,06,20,12,43,25.30
2018,06,20,12,44,25.40
2018,06,20,12,45,25.50
2018,06,20,12,46,25.60
2018,06,20,12,47,25.70
2018,06,20,12,48,25.70
2018,06,20,12,49,25.70
2018,06,20,12,50,25.70
2018,06,20,12,51,25.70
2018,06,20,12,52,25.60
2018,06,20,12,53,25.60
2018,06,20,12,54,25.50
2018,06,20,12,55,25.50
2018,06,20,12,56,25.40
2018,06,20,12,57,25.40
2018,06,20,12,58,25.50
2018,06,20,12,59,25.50
2018,06,20,13,00,25.60
2018,06,20,13,01,25.60
2018,06,20,13,02,25.60
2018,06,20,13,03,25.60
2018,06,20,13,04,25.70
2018,06,20,13,05,25.80
2018,06,20,13,06,25.90
2018,06,20,13,07,25.90
2018,06,20,13,08,25.90
2018,06,20,13,09,25.90
2018,06,20,13,10,25.90
2018,06,20,13,11,25.90
2018,06,20,13,12,25.80
2018,06,20,13,13,25.80
2018,06,20,13,14,25.80
2018,06,20,13,15,25.80
2018,06,20,13,16,25.80
2018,06,20,13,17,25.70
2018,06,20,13,18,25.70
2018,06,20,13,19,25.60
2018,06,20,13,20,25.60
2018,06,20,13,21,25.60
2018,06,20,13,22,25.50
2018,06,20,13,23,25.50
2018,06,20,13,24,25.40
2018,06,20,13,25,25.40
2018,06,20,13,26,25.30
2018,06,20,13,27,25.30
2018,06,20,13,28,25.30
2018,06,20,13,29,25.30
2018,06,20,13,30,25.30
2018,06,20,13,31,25.30
2018,06,20,13,32,25.30
2018,06,20,13,33,25.20
2018,06,20,13,34,25.20
2018,06,20,13,35,25.20
2018,06,20,13,36,25.30
2018,06,20,13,37,25.30
2018,06,20,13,38,25.40
2018,06,20,13,39,25.50
2018,06,20,13,40,25.50
2018,06,20,13,41,25.60
2018,06,20,13,42,25.60
2018,06,20,13,43,25.60
2018,06,20,13,44,25.60
2018,06,20,13,45,25.60
2018,06,20,13,46,25.60
2018,06,20,13,47,25.60
2018,06,20,13,48,25.60
2018,06,20,13,49,25.70
2018,06,20,13,50,25.70
2018,06,20,13,51,25.70
2018,06,20,13,52,25.70
2018,06,20,13,53,25.70
2018,06,20,13,54,25.70
2018,06,20,13,55,25.70
2018,06,20,13,56,25.70
2018,06,20,13,57,25.80
2018,06,20,13,58,25.80
2018,06,20,13,59,25.90
2018,06,20,14,00,25.90
2018,06,20,14,01,26.00
2018,06,20,14,02,26.10
2018,06,20,14,03,26.10
2018,06,20,14,04,26.20
2018,06,20,14,05,26.20
2018,06,20,14,06,26.30
2018,06,20,14,07,26.30
2018,06,20,14,08,26.30
2018,06,20,14,09,26.40
2018,06,20,14,10,26.40
2018,06,20,14,11,26.50
2018,06,20,14,12,26.60
2018,06,20,14,13,26.60
2018,06,20,14,14,26.70
2018,06,20,14,15,26.70
2018,06,20,14,16,26.60
2018,06,20,14,17,26.70
2018,06,20,14,18,26.70
2018,06,20,14,19,26.70
2018,06,20,14,20,26.70
2018,06,20,14,21,26.70
2018,06,20,14,22,26.70
2018,06,20,14,23,26.70
2018,06,20,14,24,26.80
2018,06,20,14,25,26.80
2018,06,20,14,26,26.80
2018,06,20,14,27,26.90
2018,06,20,14,28,26.90
2018,06,20,14,29,27.00
2018,06,20,14,30,27.00
2018,06,20,14,31,27.10
2018,06,20,14,32,27.20
2018,06,20,14,33,27.20
2018,06,20,14,34,27.20
2018,06,20,14,35,27.20
2018,06,20,14,36,27.10
2018,06,20,14,37,27.00
2018,06,20,14,38,27.00
2018,06,20,14,39,27.00
2018,06,20,14,40,27.10
2018,06,20,14,41,27.10
2018,06,20,14,42,27.00
2018,06,20,14,43,27.00
2018,06,20,14,44,27.00
2018,06,20,14,45,26.90
2018,06,20,14,46,26.90
2018,06,20,14,47,26.80
2018,06,20,14,48,26.80
2018,06,20,14,49,26.80
2018,06,20,14,50,26.80
2018,06,20,14,51,26.80
2018,06,20,14,52,26.80
2018,06,20,14,53,26.80
2018,06,20,14,54,26.90
2018,06,20,14,55,26.90
2018,06,20,14,56,26.90
2018,06,20,14,57,26.90
2018,06,20,14,58,27.00
2018,06,20,14,59,27.10
2018,06,20,15,00,27.10
2018,06,20,15,01,27.10
2018,06,20,15,02,27.10
2018,06,20,15,03,27.10
2018,06,20,15,04,27.10
2018,06,20,15,05,27.10
2018,06,20,15,06,27.10
2018,06,20,15,07,27.10
2018,06,20,15,08,27.10
2018,06,20,15,09,27.10
2018,06,20,15,10,27.10
2018,06,20,15,11,27.10
2018,06,20,15,12,27.10
2018,06,20,15,13,27.10
2018,06,20,15,14,27.10
2018,06,20,15,15,27.10
2018,06,20,15,16,27.10
2018,06,20,15,17,27.20
2018,06,20,15,18,27.20
2018,06,20,15,19,27.20
2018,06,20,15,20,27.20
2018,06,20,15,21,27.20
2018,06,20,15,22,27.20
2018,06,20,15,23,27.20
2018,06,20,15,24,27.10
2018,06,20,15,25,27.10
2018,06,20,15,26,27.10
2018,06,20,15,27,27.10
2018,06,20,15,28,27.00
2018,06,20,15,29,27.00
2018,06,20,15,30,27.00
2018,06,20,15,31,27.00
2018,06,20,15,32,27.00
2018,06,20,15,33,26.90
2018,06,20,15,34,26.90
2018,06,20,15,35,26.80
2018,06,20,15,36,26.80
2018,06,20,15,37,26.80
2018,06,20,15,38,26.80
2018,06,20,15,39,26.80
2018,06,20,15,40,26.70
2018,06,20,15,41,26.70
2018,06,20,15,42,26.70
2018,06,20,15,43,26.60
2018,06,20,15,44,26.60
2018,06,20,15,45,26.60
2018,06,20,15,46,26.60
2018,06,20,15,47,26.50
2018,06,20,15,48,26.50
2018,06,20,15,49,26.40
2018,06,20,15,50,26.30
2018,06,20,15,51,26.30
2018,06,20,15,52,26.30
2018,06,20,15,53,26.20
2018,06,20,15,54,26.20
2018,06,20,15,55,26.20
2018,06,20,15,56,26.10
2018,06,20,15,57,26.20
2018,06,20,15,58,26.20
2018,06,20,15,59,26.20
2018,06,20,16,00,26.20
2018,06,20,16,01,26.20
2018,06,20,16,02,26.20
2018,06,20,16,03,26.20
2018,06,20,16,04,26.20
2018,06,20,16,05,26.20
2018,06,20,16,06,26.20
2018,06,20,16,07,26.20
2018,06,20,16,08,26.20
2018,06,20,16,09,26.20
2018,06,20,16,10,26.20
2018,06,20,16,11,26.30
2018,06,20,16,12,26.30
2018,06,20,16,13,26.30
2018,06,20,16,14,26.30
2018,06,20,16,15,26.30
2018,06,20,16,16,26.40
2018,06,20,16,17,26.40
2018,06,20,16,18,26.40
2018,06,20,16,19,26.40
2018,06,20,16,20,26.50
2018,06,20,16,21,26.50
2018,06,20,16,22,26.50
2018,06,20,16,23,26.50
2018,06,20,16,24,26.60
2018,06,20,16,25,26.60
2018,06,20,16,26,26.70
2018,06,20,16,27,26.70
2018,06,20,16,28,26.80
2018,06,20,16,29,26.90
2018,06,20,16,30,27.00
2018,06,20,16,31,27.00
2018,06,20,16,32,27.10
2018,06,20,16,33,27.20
2018,06,20,16,34,27.20
2018,06,20,16,35,27.30
2018,06,20,16,36,27.30
2018,06,20,16,37,27.30
2018,06,20,16,38,27.30
2018,06,20,16,39,27.30
2018,06,20,16,40,27.30
2018,06,20,16,41,27.30
2018,06,20,16,42,27.30
2018,06,20,16,43,27.30
2018,06,20,16,44,27.30
2018,06,20,16,45,27.30
2018,06,20,16,46,27.20
2018,06,20,16,47,27.20
2018,06,20,16,48,27.20
2018,06,20,16,49,27.20
2018,06,20,16,50,27.20
2018,06,20,16,51,27.20
2018,06,20,16,52,27.20
2018,06,20,16,53,27.20
2018,06,20,16,54,27.30
2018,06,20,16,55,27.30
2018,06,20,16,56,27.40
2018,06,20,16,57,27.50
2018,06,20,16,58,27.50
2018,06,20,16,59,27.60
2018,06,20,17,00,27.60
2018,06,20,17,01,27.60
2018,06,20,17,02,27.60
2018,06,20,17,03,27.60
2018,06,20,17,04,27.70
2018,06,20,17,05,27.70
2018,06,20,17,06,27.70
2018,06,20,17,07,27.80
2018,06,20,17,08,27.80
2018,06,20,17,09,27.80
2018,06,20,17,10,27.90
2018,06,20,17,11,27.90
2018,06,20,17,12,27.80
2018,06,20,17,13,27.80
2018,06,20,17,14,27.80
2018,06,20,17,15,27.80
2018,06,20,17,16,27.80
2018,06,20,17,17,27.70
2018,06,20,17,18,27.70
2018,06,20,17,19,27.70